Location: ???????????
(54.6970°N, 39.1477°E)
Time: 06:35:20
(UTC+00:00)

Lacrosse 4 Rocket - Pass Details

Date: 19 May 2025
Orbit: 513 x 576 km, 68.0° (Epoch: 23 June)

Event Time Altitude Azimuth Distance (km) Brightness Sun altitude
Rises 18:43:28 0° 253° (WSW) 2,648 5.1 -8.2°
Reaches altitude 10° 18:45:51 10° 265° (W) 1,771 4.4 -8.4°
Maximum altitude 18:49:19 28° 326° (NW) 1,019 3.7 -8.7°
Drops below altitude 10° 18:52:50 10° 27° (NNE) 1,810 4.4 -9.0°
Sets 18:55:18 0° 39° (NE) 2,718 5.1 -9.2°
